Weather History for Denver Centennial, CO

Change the Weather History Date:

Tuesday, July 23, 2013

  Actual Average Record
Temperature  
Mean Temperature 78 °F -  
Max Temperature 90 °F 84 °F 98 °F (2005)
Min Temperature 66 °F 57 °F 54 °F (2004)
Cooling Degree Days 13    
Month to date cooling degree days 211  
Growing Degree Days 28 (Base 50)    
Moisture  
Dew Point 39 °F    
Average Humidity 33    
Maximum Humidity 57    
Minimum Humidity 8    
Precipitation  
Precipitation 0.00 in - - ()
Month to date precipitation 0.43  
Year to date precipitation 6.40  
Sea Level Pressure  
Sea Level Pressure 29.87 in    
Wind  
Wind Speed 7 mph (North)    
Max Wind Speed 15 mph    
Max Gust Speed 20 mph    
Visibility 10 miles    
Events      
Averages and records for this station are not official NWS values.
T = Trace of Precipitation, MM = Missing Value Source: NWS Daily Summary

Daily Weather History Graph

Daily Weather History Graph

Search for Another Location

Airport:

Trip Planner

Search our weather history database for the weather conditions in past years. The results will help you decide how hot, cold, wet, or windy it might be!

Date:

Astronomy

Jul. 23, 2013 Rise Set
Actual Time 5:51 AM MDT 8:20 PM MDT
Civil Twilight 5:20 AM MDT 8:50 PM MDT
Nautical Twilight 4:41 AM MDT 9:29 PM MDT
Astronomical Twilight 3:59 AM MDT 10:11 PM MDT
Moon 8:50 PM MDT (7/23) 7:02 AM MDT (7/23)
Length of Visible Light 15h 30m
Length of Day
14h 28m
Full, 99% of the Moon is Illuminated
Jul 23
Full
Jul 29
Last Quarter
Aug 6
New
Aug 14
First Quarter
Aug 20
Full

Hourly Weather History & Observations

Time (MDT) Temp. Dew Point Humidity Pressure Visibility Wind Dir Wind Speed Gust Speed Precip Events Conditions
12:53 AM 75.0 °F 36.0 °F 24% 29.79 in 10.0 mi SW 8.1 mph - N/A   Clear
1:53 AM 77.0 °F 36.0 °F 23% 29.79 in 10.0 mi WNW 4.6 mph - N/A   Clear
2:53 AM 69.1 °F 37.9 °F 32% 29.79 in 10.0 mi South 4.6 mph - N/A   Clear
3:53 AM 73.0 °F 37.0 °F 27% 29.78 in 10.0 mi Calm Calm - N/A   Scattered Clouds
4:53 AM 70.0 °F 37.0 °F 30% 29.81 in 10.0 mi SW 9.2 mph - N/A   Scattered Clouds
5:53 AM 68.0 °F 36.0 °F 31% 29.83 in 10.0 mi SW 9.2 mph - N/A   Partly Cloudy
6:53 AM 66.9 °F 37.0 °F 33% 29.86 in 10.0 mi Calm Calm - N/A   Mostly Cloudy
7:53 AM 73.9 °F 37.0 °F 26% 29.86 in 10.0 mi WSW 11.5 mph - N/A   Scattered Clouds
8:53 AM 81.0 °F 36.0 °F 20% 29.87 in 10.0 mi WSW 6.9 mph - N/A   Scattered Clouds
9:53 AM 87.1 °F 19.0 °F 8% 29.88 in 10.0 mi NNW 4.6 mph - N/A   Scattered Clouds
10:53 AM 84.9 °F 34.0 °F 16% 29.91 in 10.0 mi NNE 10.4 mph - N/A   Scattered Clouds
11:53 AM 84.9 °F 37.9 °F 19% 29.91 in 10.0 mi NE 13.8 mph 19.6 mph N/A   Scattered Clouds
12:53 PM 84.9 °F 43.0 °F 23% 29.91 in 10.0 mi NE 12.7 mph 21.9 mph N/A   Scattered Clouds
1:53 PM 87.1 °F 43.0 °F 21% 29.89 in 10.0 mi NE 6.9 mph 16.1 mph N/A   Scattered Clouds
2:53 PM 88.0 °F 42.1 °F 20% 29.89 in 10.0 mi NE 11.5 mph 16.1 mph N/A   Scattered Clouds
3:53 PM 89.1 °F 36.0 °F 15% 29.87 in 10.0 mi NE 3.5 mph - N/A   Scattered Clouds
4:53 PM 87.1 °F 35.1 °F 16% 29.87 in 10.0 mi Variable 5.8 mph - N/A   Mostly Cloudy
5:53 PM 88.0 °F 35.1 °F 15% 29.87 in 10.0 mi Calm Calm - N/A   Mostly Cloudy
6:53 PM 87.1 °F 37.0 °F 17% 29.88 in 10.0 mi NE 10.4 mph - N/A   Mostly Cloudy
7:53 PM 82.9 °F 36.0 °F 19% 29.90 in 10.0 mi ENE 9.2 mph - N/A   Mostly Cloudy
8:53 PM 77.0 °F 52.0 °F 42% 29.93 in 10.0 mi ENE 5.8 mph - N/A   Mostly Cloudy
9:53 PM 75.0 °F 52.0 °F 44% 29.94 in 10.0 mi Calm Calm - N/A   Scattered Clouds
10:53 PM 73.0 °F 53.1 °F 49% 29.96 in 10.0 mi West 5.8 mph - N/A   Partly Cloudy
11:53 PM 71.1 °F 55.9 °F 59% 29.99 in 10.0 mi NNW 4.6 mph - N/A   Scattered Clouds